STARLINK-11503, 63142

Orbit data source: Space-Track

STARLINK-11503, 63142 is a payload satellite owned by SpaceX/Seattle (US) in LEO that was launched on Mon, 03 Mar 2025 UTC via an FALCON 9 launch vehicle from the Air Force Eastern Test Range (AFETR). Payload-class satellites include a variety of spacecraft equipped with specific instruments for various scientific and technological missions. These include communications satellites like Starlink; space stations such as the ISS; scientific satellites like the Hubble; Earth observation satellites from companies like Planet Labs, Umbra, and HawkEye 360; GPS; miniature CubeSats for education and research; and military/defense satellites.

Loading next visibility...
Identifier
63142, 2025-043L
Orbit
LEO
Country
Flag of USUS
Related business
Manufacturer
SpaceX/Seattle
Mission
Operational Commercial Communications
Bus & Motor
STARLINK V2MD, Unknown motor
Mass
960 kg wet, ~910 kg dry
Launch date (UTC)
2025-03-03 (8 months ago)
Launch vehicle
FALCON 9
Launch site
Air Force Eastern Test Range (AFETR)
Object type
Payload
Rocket body
Debris
Shape & HBR
Box + 2 Pan, 18.1 m
Radar Cross Section
36.964 m², Large (>1 m²)

Expand to show TLE details & history
Last TLE update: 12 hours ago

TLE from 12 hours ago
0 STARLINK-11503
1 63142U 25043L   25306.43998855  .00217390  00000-0  16466-2 0  9994
2 63142  42.9985 297.3223 0000435 272.7252  87.3566 15.70943099 39286
Epoch: 2025-11-02T10:33Z
TLE epoch observation values (Epoch: 2025-11-02T10:33:35.010Z)
Latitude
-0.00002°
Longitude
96.97072°
Altitude
355.958 km
Speed
7.697 km/s
True Right ascension
19h 49m 17s
True Declination
0° 00' 00"
Sunlit
Object was in daylight at epoch
Visualization orbit readout
Latitude
Unknown
Longitude
Unknown
Altitude
Unknown
Speed
Unknown
Apparent Right ascension
Unknown
Apparent Declination
Unknown
Sunlit
N/A
Visualization observer readout
Local Sidereal Time
18:37:04
Azimuth
Unknown
Elevation
Unknown
Doppler factor
Unknown
Orbital elements
Apogee altitude
358.475 km
Perigee altitude
357.889 km
Semi-major axis
6,736.319 km
Eccentricity
0.00004
Inclination
42.9985°
RAAN
297.3223°
Arg. of periapsis
272.7252°
True anomaly
87.36158°
Mean anomaly
87.3566°
Eccentric anomaly
87.35909°
Mean motion
3.92563 °/min
Orbital period
91.71 mins
BSTAR
0.0016466
Loading maneuver chart data...
Computing Atmospheric mass density...
Loading historical data...
Loading historical data...
Loading historical data...
Loading historical data...
Loading historical data...
Loading historical data...
Loading historical data...

Documentation

Showing up to 5 results
|